User: anonymous   Login
Location: Ostrava
(49.8330°N, 18.2830°E)
Time: 20:24:37
(UTC+02:00)
Language:

Iridium 7 - Orbit

View from above orbital plane
View from above orbital plane
View from above satellite
View from above satellite

Ground track
Ground track

The orbit data is extracted from the following two-line orbital elements,

1 24793U 97020B   15214.55182459  .00000134  00000-0  40626-4 0  9995
2 24793 086.3943 245.0837 0002317 091.5394 062.0609 14.34218565955060
Epoch (UTC): 02 August 2015 13:14:37
Eccentricity: 0.0002317
inclination: 86.3943°
perigee height: 776 km
apogee height: 779 km
right ascension of ascending node: 245.0837°
argument of perigee: 91.5394°
revolutions per day: 14.34218565
mean anomaly at epoch: 62.0609°
orbit number at epoch: 95506

The dashed part of the orbit path shows where the satellite is in the earth's shadow,  

DLR